Augusta Bush, GA

11:07 AM EDT on June 24, 2017 (GMT -0400)
Augusta Regional At Bush

Weather History for KAGS - January, 2014

Change the Weather History Date:

Thursday, January 30, 2014

  Actual Average Record
Temperature  
Mean Temperature 28 °F 46 °F  
Max Temperature 40 °F 59 °F 81 °F (2002)
Min Temperature 16 °F 34 °F 6 °F (1966)
Degree Days  
Heating Degree Days 37 19  
Month to date heating degree days 755 591  
Since 1 July heating degree days 1672 1566  
Cooling Degree Days 0 0  
Month to date cooling degree days 0 0  
Year to date cooling degree days 0 0  
Moisture  
Dew Point 16 °F    
Average Humidity 63    
Maximum Humidity 92    
Minimum Humidity 34    
Precipitation  
Precipitation 0.00 in 0.13 in 1.95 in (1991)
Month to date precipitation 2.48 3.78  
Year to date precipitation 2.48 3.78  
Sea Level Pressure  
Sea Level Pressure 30.32 in    
Wind  
Wind Speed 2 mph (NE)    
Max Wind Speed 10 mph    
Max Gust Speed 16 mph    
Visibility 9 miles    
Events      
T = Trace of Precipitation, MM = Missing Value Source: NWS Daily Summary

Daily Weather History Graph

Daily Weather History Graph

Search for Another Location

Airport or City:

Trip Planner

Search our weather history database for the weather conditions in past years. The results will help you decide how hot, cold, wet, or windy it might be!

Date:

Astronomy

Jan. 30, 2014 Rise Set
Actual Time 7:25 AM EST 5:57 PM EST
Civil Twilight 6:58 AM EST 6:23 PM EST
Nautical Twilight 6:29 AM EST 6:53 PM EST
Astronomical Twilight 5:59 AM EST 7:22 PM EST
Moon 6:52 AM EST (1/30) 6:04 PM EST (1/30)
Length of Visible Light 11h 24m
Length of Day
10h 32m
Waning Crescent, 0% of the Moon is Illuminated
Jan 30
Waning Crescent
Jan 30
New
Feb 6
First Quarter
Feb 14
Full
Feb 22
Last Quarter

Hourly Weather History & Observations

Time (EST) Temp. Windchill Dew Point Humidity Pressure Visibility Wind Dir Wind Speed Gust Speed Precip Events Conditions
12:53 AM 19.9 °F - 18.0 °F 92% 30.38 in 6.0 mi Calm Calm - N/A   Clear
1:53 AM 19.9 °F - 17.1 °F 89% 30.38 in 7.0 mi Calm Calm - N/A   Clear
2:53 AM 19.0 °F - 16.0 °F 88% 30.37 in 5.0 mi Calm Calm - N/A   Clear
3:16 AM 19.4 °F - 15.8 °F 86% 30.35 in 7.0 mi Calm Calm - N/A   Partly Cloudy
3:53 AM 16.0 °F 10.4 °F 14.0 °F 92% 30.36 in 7.0 mi WNW 3.5 mph - N/A   Clear
4:53 AM 19.0 °F - 17.1 °F 92% 30.36 in 7.0 mi Calm Calm - N/A   Clear
5:53 AM 16.0 °F - 14.0 °F 92% 30.36 in 7.0 mi Calm Calm - N/A   Clear
6:53 AM 16.0 °F 6.3 °F 14.0 °F 92% 30.38 in 9.0 mi North 6.9 mph - N/A   Clear
7:53 AM 17.1 °F - 12.9 °F 84% 30.39 in 10.0 mi Calm Calm - N/A   Clear
8:53 AM 23.0 °F - 19.0 °F 85% 30.40 in 10.0 mi Calm Calm - N/A   Clear
9:53 AM 27.0 °F 20.5 °F 14.0 °F 58% 30.40 in 10.0 mi East 5.8 mph - N/A   Clear
11:53 AM - - - N/A% - - North - - N/A   Unknown
1:53 PM 37.9 °F - 14.0 °F 38% 30.30 in 10.0 mi Calm Calm - N/A   Clear
2:53 PM 37.9 °F 34.4 °F 15.1 °F 39% 30.28 in 10.0 mi SE 4.6 mph - N/A   Clear
3:53 PM 39.9 °F 35.8 °F 15.1 °F 36% 30.25 in 10.0 mi NNE 5.8 mph - N/A   Clear
4:53 PM 39.9 °F 37.8 °F 14.0 °F 35% 30.25 in 10.0 mi ENE 3.5 mph - N/A   Clear
5:53 PM 36.0 °F 33.3 °F 15.1 °F 43% 30.24 in 10.0 mi SE 3.5 mph - N/A   Clear
6:53 PM 28.9 °F - 19.0 °F 67% 30.24 in 10.0 mi Calm Calm - N/A   Clear
7:53 PM 25.0 °F - 19.0 °F 78% 30.27 in 10.0 mi Calm Calm - N/A   Clear
8:53 PM 24.1 °F - 19.0 °F 81% 30.24 in 10.0 mi Calm Calm - N/A   Clear
9:53 PM 23.0 °F 15.8 °F 18.0 °F 81% 30.26 in 10.0 mi NW 5.8 mph - N/A   Clear
10:53 PM 23.0 °F - 19.0 °F 85% 30.26 in 10.0 mi Calm Calm - N/A   Clear
11:53 PM 19.0 °F - 16.0 °F 88% 30.24 in 10.0 mi Calm Calm - N/A   Clear